Time,B instrument,Bx,By,Bz,sigma B,Ion instrument,Status,Tp_par,Tp_perp,carrot,r_sun,clat,clong,earth_he_angle,n_p,vp_x,vp_y,vp_z,vth_p_par,vth_p_perp
1980-10-14 00:28:11,-1,nan,nan,nan,nan,1,3,nan,nan,1700,0.83344471,-4.1982431,205.40637,90.640747,nan,441.693,-12.5594,-5.23811,nan,nan
1980-10-14 01:11:23,-1,nan,nan,nan,nan,1,3,nan,nan,1700,0.83322895,-4.2012262,205.01132,90.640228,nan,451.012,-7.42163,-20.1438,nan,nan
1980-10-14 02:04:03,-1,nan,nan,nan,nan,1,4,nan,nan,1700,0.83405852,-4.4527607,204.30225,90.415527,nan,nan,nan,nan,nan,nan
1980-10-14 03:47:12,1,-3.3,1.6,0.6,0.0,1,1,31560.2,43853.9,1700,0.83244455,-4.2120504,203.58383,90.638519,33.5602,463.246,-12.4446,-1.58232,22.8259,26.9068
1980-10-14 03:48:33,1,-1.5,1.6125,2.5375,0.921107,1,1,38308.2,44167.3,1700,0.83243954,-4.2121201,203.56821,90.638519,30.7112,460.477,-10.3583,-1.47692,25.148,27.0028
1980-10-14 03:49:54,1,-4.25556,1.53333,-0.0333333,0.607565,1,1,26558.6,36209.6,1700,0.83243448,-4.2121887,203.55647,90.638504,33.1615,462.113,-8.71879,-1.90855,20.9392,24.4495
1980-10-14 03:50:05,1,-4.4,1.175,-0.05,0.311247,1,1,30005.3,18020.7,1700,0.83242947,-4.2122583,203.55646,90.638489,65.0937,457.816,-24.7078,-12.5832,22.2565,17.2482
1980-10-14 03:51:26,1,0.225,-2.4875,3.1625,1.15122,1,1,41964.9,36375.3,1700,0.8324244,-4.212328,203.54474,90.638489,32.3744,456.585,-12.0709,-6.39183,26.3209,24.5054
1980-10-14 03:52:47,1,2.3,-2.725,4.3625,0.376456,1,1,50599.8,39007.1,1700,0.8324194,-4.2123976,203.533,90.638474,29.5775,459.341,-14.9444,-6.63153,28.9023,25.3764
1980-10-14 03:54:08,1,4.02222,-3.42222,5.02222,0.696552,1,1,29602.7,33660.7,1700,0.83240932,-4.2125359,203.51736,90.638458,31.5055,462.186,-12.0755,-8.02782,22.1067,23.5732
1980-10-14 03:55:29,1,3.18889,-3.26667,4.34444,0.375812,1,1,32575.3,47744.4,1700,0.83240432,-4.2126055,203.50563,90.638443,27.1764,464.441,-19.8085,-3.6124,23.1901,28.075
1980-10-14 03:56:50,1,4.0,-3.4,5.1,0.282843,1,1,26246.1,31617.5,1700,0.83239925,-4.2126751,203.4939,90.638428,30.3083,465.126,-13.0479,-6.68353,20.8157,22.8466
1980-10-14 03:58:11,1,4.43333,-3.84444,4.28889,0.693711,1,1,27561.7,39815.1,1700,0.83238918,-4.2128134,203.48216,90.638412,23.8937,458.67,-17.3321,-2.62196,21.331,25.6379
1980-10-14 03:59:32,1,5.1875,-3.575,3.95,0.350669,1,1,26704.5,37028.0,1700,0.83238417,-4.212883,203.47043,90.638397,28.6228,459.603,-10.5604,2.64402,20.9966,24.7243
1980-10-14 04:00:53,1,5.61111,-3.34444,4.53333,0.393151,1,1,28344.1,31814.6,1700,0.8323791,-4.2129526,203.45871,90.638397,26.0282,456.773,-19.9131,-0.538468,21.6316,22.9177
1980-10-14 04:02:14,1,5.78889,-2.13333,3.6,0.435748,1,1,30264.5,35115.9,1700,0.83236903,-4.2130909,203.44305,90.638367,27.3328,456.847,-15.5086,4.11554,22.3524,24.0774
1980-10-14 04:03:35,1,5.67778,-1.55556,3.02222,0.443889,1,1,17927.9,30264.9,1700,0.83236402,-4.2131605,203.43134,90.638367,30.9331,457.248,-23.4241,1.48294,17.2037,22.3526
1980-10-14 04:04:56,1,5.43333,-2.01111,4.84444,0.923226,1,1,23378.7,41218.9,1700,0.83235896,-4.2132301,203.4196,90.638351,24.8169,464.721,-16.9748,0.514202,19.6457,26.0859
1980-10-14 04:06:17,1,4.81111,-1.64444,4.58889,0.930949,1,1,37109.5,42249.1,1700,0.83234888,-4.2133684,203.40787,90.638336,25.692,464.331,-23.0671,7.15142,24.7514,26.4099
1980-10-14 04:07:38,1,1.86667,-0.755556,-1.47778,0.805383,1,1,44470.1,54300.5,1700,0.83234388,-4.213438,203.39613,90.638321,27.5823,458.584,-17.019,5.95726,27.0952,29.9405
1980-10-14 04:08:59,1,2.83333,-1.74444,0.333333,0.279329,1,1,31339.3,39224.1,1700,0.83233881,-4.2135077,203.3844,90.638306,32.6292,459.801,-23.8129,6.04668,22.7459,25.4469
1980-10-14 04:10:20,1,3.22222,-1.47778,0.788889,0.739369,1,1,38882.3,46944.4,1700,0.83232874,-4.2136469,203.36876,90.63829,31.51,463.392,-17.2876,10.9217,25.3358,27.8387
1980-10-14 04:11:41,1,4.4,-1.35556,1.85556,0.275771,1,1,35008.3,47283.1,1700,0.83232373,-4.2137165,203.35703,90.638275,28.1122,463.221,-22.7685,3.95181,24.0405,27.939
1980-10-14 04:13:02,1,4.41111,-1.9,2.84444,0.307519,1,1,45803.7,53888.7,1700,0.83231366,-4.2138548,203.34529,90.63826,29.362,463.824,-17.9704,4.35689,27.4984,29.8268
1980-10-14 04:14:23,1,2.4,-2.82222,4.52222,0.387458,1,1,38228.2,45754.6,1700,0.83230859,-4.2139244,203.33356,90.638245,30.2112,462.095,-19.7009,1.51348,25.1217,27.4837
1980-10-14 04:15:44,1,2.62222,-1.9,4.24444,0.278444,1,1,35846.1,37700.9,1700,0.83230358,-4.213994,203.32184,90.638245,31.1374,459.144,-15.1629,2.57482,24.3264,24.9479
1980-10-14 04:17:05,1,2.38889,-1.87778,4.6,0.267591,1,1,36089.2,47687.2,1700,0.83229345,-4.2141323,203.31009,90.638214,30.6597,461.992,-21.6666,0.371656,24.4088,28.0581
1980-10-14 04:18:26,1,1.37778,-3.12222,5.78889,0.719568,1,1,44750.1,38303.7,1700,0.83228844,-4.2142019,203.29446,90.638214,30.1075,464.774,-15.8347,1.56628,27.1803,25.1465
1980-10-14 04:19:47,1,3.62222,-4.18889,8.6,0.71059,1,1,41256.2,42270.9,1700,0.83228338,-4.2142715,203.28273,90.638199,19.5064,476.472,-26.2883,11.0017,26.0977,26.4167
1980-10-14 04:21:08,1,6.42222,-3.83333,8.91111,1.21858,1,1,72758.2,72802.9,1700,0.8322733,-4.2144108,203.271,90.638184,14.0867,484.992,-19.2118,13.7439,34.6576,34.6683
1980-10-14 04:22:29,1,6.31111,-3.7,9.38889,0.426586,1,1,97860.9,98586.1,1700,0.8322683,-4.2144804,203.25926,90.638168,14.3492,482.205,-18.1533,5.22618,40.1941,40.3428
1980-10-14 04:23:50,1,6.51111,-3.9,9.48889,0.516159,1,1,96845.3,82088.2,1700,0.83226323,-4.2145491,203.24753,90.638153,10.4128,487.282,-17.9811,10.4288,39.985,36.8128
1980-10-14 04:25:11,1,6.85556,-3.42222,9.34444,0.188562,1,1,30607.6,95776.3,1700,0.83225316,-4.2146883,203.23579,90.638138,9.44757,496.564,-17.9184,17.8825,22.4788,39.7637
1980-10-14 04:26:32,1,6.6,-3.48889,9.16667,0.68871,1,1,138957.0,127234.0,1700,0.83224815,-4.2147579,203.22015,90.638123,11.7135,499.246,-21.0053,24.4916,47.8959,45.831
1980-10-14 05:17:39,-1,nan,nan,nan,nan,1,3,nan,nan,1700,0.83199108,-4.2182989,202.75481,90.637619,nan,479.957,-8.60512,-4.10852,nan,nan
1980-10-14 05:19:00,1,5.22222,-3.47778,10.6556,0.608581,1,1,58665.4,207958.0,1700,0.831981,-4.2184381,202.73917,90.637604,6.34184,472.439,-11.5449,-3.27406,31.1207,58.593
1980-10-14 05:20:21,1,4.2625,-3.175,11.0875,0.49276,1,1,63249.7,157935.0,1700,0.83197594,-4.2185078,202.72743,90.637589,5.17501,473.931,-33.8795,-11.1902,32.3137,51.0619
1980-10-14 05:21:42,1,4.1375,-3.6125,11.35,0.378731,1,1,77839.4,146439.0,1700,0.83197087,-4.2185764,202.71571,90.637589,5.28151,470.648,-29.1731,-1.15394,35.8474,49.1684
1980-10-14 05:23:05,1,3.94444,-4.91111,12.0778,0.936107,1,1,71764.5,183541.0,1700,0.8319608,-4.2187157,202.70396,90.637558,5.63677,480.198,11.8162,1.54246,34.4201,55.0458
1980-10-14 05:24:26,1,4.06667,-3.93333,12.3556,0.605734,1,1,69228.3,182537.0,1700,0.83195573,-4.2187853,202.69225,90.637558,5.82135,479.175,-15.6496,-8.24811,33.8065,54.8951
1980-10-14 05:28:29,1,3.2,-5.31111,12.5667,0.647121,1,1,66377.1,152876.0,1700,0.83303308,-4.4664769,202.42871,90.413086,5.53344,482.033,-7.12213,-6.18094,33.103,50.2374
1980-10-14 05:30:42,1,3.7,-4.62222,12.7889,0.395031,1,1,74290.8,165545.0,1700,0.83192551,-4.219202,202.63359,90.637497,5.85036,475.093,-13.6659,-3.52016,35.0208,52.2776
1980-10-14 05:30:43,1,3.7,-4.62222,12.7889,0.395031,1,1,72864.3,176022.0,1700,0.83193052,-4.2191324,202.63361,90.637512,6.01237,481.052,-5.10152,-4.06108,34.6829,53.9066
1980-10-14 05:31:11,1,3.98889,-4.56667,12.6111,0.518307,1,1,61646.6,150489.0,1700,0.83192044,-4.2192707,202.62967,90.637482,5.38776,475.427,-11.0877,-7.65362,31.9016,49.8436
1980-10-14 05:32:32,1,3.37778,-5.96667,12.3444,0.274424,1,1,66400.8,174567.0,1700,0.83191538,-4.2193403,202.61795,90.637482,6.0228,479.967,-0.11658,-5.48906,33.1089,53.6832
1980-10-14 05:33:53,1,2.86667,-5.03333,12.8778,0.293552,1,1,55420.5,157402.0,1700,0.83191037,-4.2194099,202.60231,90.637466,5.32778,484.571,-9.36904,-12.6517,30.2478,50.9757
1980-10-14 05:35:14,1,1.98889,-4.95556,13.0556,0.545011,1,1,70712.9,173976.0,1700,0.83190024,-4.2195492,202.59058,90.637451,5.64876,489.38,-5.35286,-10.9332,34.167,53.5924
1980-10-14 05:36:35,1,3.15,-4.925,12.6,1.08484,1,1,60119.7,151741.0,1700,0.83189523,-4.2196178,202.57884,90.637436,5.2198,489.449,-1.16139,-11.4592,31.504,50.0507
1980-10-14 05:37:56,1,3.85556,-4.08889,12.5222,0.546368,1,1,72566.6,164500.0,1700,0.83189017,-4.2196875,202.56712,90.637436,5.84669,475.859,-19.09,-6.34838,34.612,52.1123
1980-10-14 05:39:17,1,4.18889,-3.2,12.1667,0.574349,1,1,79872.9,175807.0,1700,0.83188009,-4.2198267,202.55539,90.637421,6.13283,473.433,-19.094,-8.55209,36.3126,53.8736
1980-10-14 05:40:38,1,4.11111,-3.07778,12.3667,0.397834,1,1,72169.6,166651.0,1700,0.83187503,-4.2198963,202.54366,90.637405,5.81003,468.606,-18.8539,-4.1287,34.5172,52.4519
1980-10-14 05:41:59,1,4.28889,-3.1,12.4,0.233069,1,1,73591.1,159982.0,1700,0.83187002,-4.219965,202.52802,90.63739,6.03753,473.076,-19.3565,-3.29278,34.8554,51.3918
1980-10-14 05:43:20,1,3.65556,-4.2,12.5,1.47431,1,1,78003.5,161460.0,1700,0.83185989,-4.2201042,202.51628,90.637375,6.0821,471.222,-22.768,-4.46516,35.8852,51.6286
1980-10-14 05:44:41,1,4.0,-2.83333,12.3667,1.0274,1,1,81444.1,200409.0,1700,0.83185488,-4.2201738,202.50455,90.63736,5.87613,467.714,-29.9551,-3.57251,36.6681,57.5197
1980-10-14 05:46:02,1,4.38889,-2.17778,12.1556,0.510628,1,1,79617.9,160904.0,1700,0.83184475,-4.2203121,202.49281,90.637344,5.57905,465.511,-29.4401,-1.39477,36.2546,51.5396
1980-10-14 05:47:23,1,4.58889,-1.37778,11.9,0.542058,1,1,88973.1,191682.0,1700,0.83183974,-4.2203817,202.48109,90.637344,6.20187,468.653,-41.3871,-3.10125,38.3254,56.2533
1980-10-14 05:48:44,1,4.72222,-1.91111,11.9111,0.335548,1,1,83353.9,185477.0,1700,0.83183467,-4.2204514,202.46936,90.637329,5.68946,467.435,-30.5412,0.790727,37.0955,55.3354
1980-10-14 05:50:05,1,4.48889,-2.25556,11.8444,0.410059,1,1,80792.4,184202.0,1700,0.8318246,-4.2205906,202.45372,90.637314,5.72806,467.341,-29.9301,0.208985,36.521,55.1449
1980-10-14 05:51:26,1,4.21111,-3.44444,11.4,1.20605,1,1,77323.7,167621.0,1700,0.83181953,-4.2206593,202.44199,90.637299,5.38984,467.806,-27.7318,0.649854,35.7284,52.6044
1980-10-14 05:52:47,1,3.07778,-2.92222,10.3889,0.843274,1,1,130556.0,206622.0,1700,0.83181453,-4.2207289,202.43025,90.637283,6.12449,475.288,-43.033,-0.986098,46.4254,58.4045
1980-10-14 05:54:08,1,3.93333,-6.56667,8.62222,1.14676,1,1,133181.0,207174.0,1700,0.83180439,-4.2208681,202.41852,90.637268,6.0701,472.443,-12.799,8.71617,46.8898,58.4824
1980-10-14 05:55:29,1,4.27778,-6.65556,8.03333,1.24979,1,1,121933.0,231414.0,1700,0.83179939,-4.2209377,202.4068,90.637268,6.32299,476.232,-0.552202,13.2949,44.8661,61.8092
1980-10-14 05:56:50,1,3.35556,-5.04444,9.57778,2.58156,1,1,135858.0,255637.0,1700,0.83179432,-4.2210064,202.39507,90.637253,7.09821,478.058,-35.4322,-1.93689,47.3588,64.9636
1980-10-14 05:58:11,1,2.5875,-2.6375,11.85,0.650721,1,1,109925.0,208718.0,1700,0.83178425,-4.2211456,202.37943,90.637238,5.98063,483.723,-37.1377,-3.85293,42.5998,58.6999
1980-10-14 05:59:32,1,3.8,-4.12222,10.7444,0.496407,1,1,115509.0,233240.0,1700,0.83177918,-4.2212152,202.36769,90.637222,6.63862,467.886,-25.4563,3.32377,43.6682,62.0525
1980-10-14 06:00:53,1,4.27778,-6.26667,9.24444,0.516159,1,1,107239.0,194696.0,1700,0.83177412,-4.2212849,202.35597,90.637222,6.19738,469.188,-6.50593,15.5704,42.0759,56.6939
1980-10-14 06:02:14,1,2.74444,-5.11111,10.6556,1.29672,1,1,101571.0,233068.0,1700,0.83176404,-4.2214231,202.34422,90.637192,6.42125,474.274,-10.8206,5.70626,40.9489,62.0296
1980-10-14 06:03:35,1,3.05556,-4.17778,10.5889,0.540233,1,1,133467.0,202498.0,1700,0.83175898,-4.2214928,202.3325,90.637192,6.07183,474.324,-10.9808,7.96022,46.9401,57.8187
1980-10-14 06:04:56,1,4.25556,-3.1,10.5778,0.385541,1,1,120307.0,222823.0,1700,0.83175397,-4.2215624,202.32077,90.637177,6.5313,473.246,-31.4132,3.13298,44.5659,60.651
1980-10-14 06:06:17,1,3.64444,-3.06667,10.7889,0.351364,1,1,96237.3,231235.0,1700,0.83174384,-4.2217007,202.30513,90.637161,6.46632,469.754,-28.2816,0.0163182,39.8593,61.7852
1980-10-14 06:07:38,1,4.81111,-2.53333,10.0444,0.264808,1,1,121517.0,227004.0,1700,0.83173877,-4.2217703,202.2934,90.637146,6.66219,465.851,-33.0691,7.62487,44.7894,61.2174
1980-10-14 06:08:59,1,5.01111,-2.58889,10.1778,0.479969,1,1,105371.0,224366.0,1700,0.83173376,-4.2218399,202.28168,90.637146,6.46152,467.231,-35.0103,8.28745,41.7078,60.8606
1980-10-14 06:10:20,1,5.78889,-0.144444,8.71111,0.984322,1,1,104551.0,194943.0,1700,0.83172363,-4.2219791,202.26994,90.637131,6.12306,455.244,-58.4989,16.3336,41.5452,56.7298
1980-10-14 06:11:41,1,4.51111,-3.01111,10.0444,0.416333,1,1,81974.8,213104.0,1700,0.83171862,-4.2220488,202.25821,90.637115,5.63202,470.265,-33.707,7.35381,36.7873,59.3136
1980-10-14 06:13:02,1,5.28889,-2.07778,9.86667,0.327354,1,1,83975.4,165720.0,1700,0.83170849,-4.222187,202.24648,90.6371,5.1403,466.402,-33.7347,8.19172,37.2335,52.3053
1980-10-14 06:14:23,1,4.22222,-2.45556,9.24444,0.625389,1,1,165626.0,232453.0,1700,0.83170342,-4.2222567,202.23083,90.637085,6.14493,473.902,-23.1418,13.0407,52.2905,61.9478
1980-10-14 06:15:44,1,4.35,-1.625,8.425,0.398434,1,1,146075.0,233796.0,1700,0.83169842,-4.2223263,202.21912,90.637085,6.63291,470.841,-44.321,15.568,49.1073,62.1264
1980-10-14 06:17:05,1,4.9625,-0.625,8.25,0.775705,1,1,191762.0,254584.0,1700,0.83168828,-4.2224646,202.20737,90.637054,7.34582,470.061,-52.2007,22.7926,56.2651,64.8296
1980-10-14 06:18:26,1,5.2875,0.2625,9.3125,0.51189,1,1,105718.0,202263.0,1700,0.83168328,-4.2225342,202.19565,90.637054,6.60541,461.687,-62.9538,16.6704,41.7765,57.7851
1980-10-14 06:19:47,1,5.51111,0.688889,8.73333,0.496407,1,1,130020.0,195652.0,1700,0.83167821,-4.2226038,202.18391,90.637039,6.13525,459.162,-61.9271,12.0077,46.33,56.833
1980-10-14 06:21:08,1,5.24444,1.54444,7.58889,1.36436,1,1,88200.5,215109.0,1700,0.83166814,-4.222743,202.17218,90.637024,6.46892,460.494,-62.6816,19.2106,38.1587,59.5919
1980-10-14 06:22:29,1,4.91111,1.22222,5.63333,1.26774,1,1,132181.0,230177.0,1700,0.83166307,-4.2228127,202.16045,90.637009,6.52206,457.24,-69.279,30.9717,46.7135,61.6437
1980-10-14 06:23:50,1,5.23333,2.61111,6.74444,0.536564,1,1,138055.0,200824.0,1700,0.83165801,-4.2228813,202.14482,90.637009,5.97839,460.662,-75.7966,31.0805,47.7401,57.5792
1980-10-14 06:25:11,1,5.3,0.0333333,8.76667,0.64291,1,1,124034.0,207515.0,1700,0.83164793,-4.2230206,202.13309,90.636993,6.18182,462.648,-49.9414,14.3394,45.2511,58.5305
1980-10-14 06:26:32,1,4.83333,-1.26667,9.51111,0.381356,1,1,112515.0,199968.0,1700,0.83164287,-4.2230902,202.12135,90.636978,6.10584,464.22,-45.9405,10.1107,43.0987,57.4564
1980-10-14 06:27:53,1,5.22222,-0.588889,9.06667,0.427453,1,1,120506.0,220176.0,1700,0.8316378,-4.2231598,202.10962,90.636963,5.87267,462.268,-51.0096,14.6345,44.6028,60.2897
1980-10-14 06:29:14,1,4.1,-1.83333,10.1,0.413656,1,1,143475.0,248181.0,1700,0.83162773,-4.2232981,202.09789,90.636948,6.61502,469.468,-35.994,3.21009,48.6683,64.0091
1980-10-14 06:30:35,1,3.92222,-1.46667,10.3,0.269888,1,1,128562.0,263230.0,1700,0.83162266,-4.2233677,202.08617,90.636948,6.72949,472.607,-42.3362,5.87135,46.0695,65.9212
1980-10-14 06:31:56,1,4.57778,-1.43333,10.2111,0.430044,1,1,146607.0,256800.0,1700,0.83161759,-4.2234373,202.07053,90.636932,6.56281,466.655,-44.8886,6.34523,49.1966,65.1112
1980-10-14 06:33:17,1,4.57778,-1.52222,10.2444,0.448867,1,1,119930.0,242998.0,1700,0.83160752,-4.2235756,202.05879,90.636917,6.58451,467.487,-41.9413,4.61207,44.4961,63.3373
1980-10-14 06:34:38,1,3.9,-2.13333,10.1667,0.312694,1,1,151763.0,260161.0,1700,0.83160245,-4.2236452,202.04706,90.636902,6.59403,469.112,-38.9089,9.12594,50.0543,65.5358
1980-10-14 06:35:59,1,3.13333,-3.43333,10.3333,0.514242,1,1,138879.0,227696.0,1700,0.83159739,-4.2237148,202.03534,90.636902,6.61928,469.961,-32.8695,-0.10247,47.8825,61.3106
1980-10-14 06:37:20,1,4.32222,-1.12222,9.87778,2.06469,1,1,124474.0,264466.0,1700,0.83158731,-4.2238541,202.02359,90.636871,6.75602,468.105,-36.0088,3.90385,45.3313,66.0759
1980-10-14 06:38:41,1,5.04444,1.26667,8.24444,1.58059,1,1,168306.0,187445.0,1700,0.83158225,-4.2239237,202.01187,90.636871,5.9346,459.922,-46.3197,12.4965,52.7118,55.6282
1980-10-14 06:40:02,1,5.16667,-0.611111,8.97778,0.430044,1,1,159519.0,278744.0,1700,0.83157218,-4.224062,201.99623,90.636856,7.50935,455.113,-49.7346,13.7481,51.3174,67.8361
1980-10-14 06:41:23,1,4.25556,-2.93333,7.06667,2.57212,1,1,162182.0,252397.0,1700,0.83156711,-4.2241316,201.9845,90.636841,6.80464,469.201,-22.4932,7.51166,51.744,64.5506
1980-10-14 06:42:44,1,5.44444,1.34444,7.91111,0.486864,1,1,143916.0,224714.0,1700,0.83156204,-4.2242012,201.97276,90.636826,6.32793,460.222,-55.1288,9.78904,48.743,60.9078
1980-10-14 06:44:05,1,5.37778,0.133333,8.62222,0.773959,1,1,119810.0,234647.0,1700,0.83155197,-4.2243395,201.96103,90.63681,6.47032,466.706,-45.4366,2.79924,44.4739,62.2394
1980-10-14 06:45:26,1,5.67778,0.355556,8.08889,0.712325,1,1,166340.0,257964.0,1700,0.8315469,-4.2244091,201.94931,90.63681,6.90705,464.832,-46.4595,12.9935,52.403,65.2585
1980-10-14 06:46:47,1,5.72222,0.522222,8.03333,0.584153,1,1,148664.0,231060.0,1700,0.8315419,-4.2244787,201.93758,90.636795,6.79019,462.217,-51.3634,11.7436,49.5405,61.7619
1980-10-14 06:48:08,1,5.93333,0.0666667,8.8,0.210819,1,1,132711.0,219259.0,1700,0.83153176,-4.224618,201.92194,90.63678,6.20885,461.525,-50.0284,6.21398,46.807,60.164
1980-10-14 06:49:29,1,5.41111,-0.388889,8.53333,0.456773,1,1,150411.0,253936.0,1700,0.8315267,-4.2246876,201.9102,90.636765,6.73471,466.66,-45.6753,5.13008,49.8308,64.7471
1980-10-14 06:50:50,-1,nan,nan,nan,nan,1,4,nan,nan,1700,0.83152169,-4.2247562,201.89848,90.636765,nan,nan,nan,nan,nan,nan
1980-10-14 06:52:11,1,0.955556,-6.41111,9.78889,2.36831,1,1,164609.0,279435.0,1700,0.83151156,-4.2248955,201.88673,90.636734,6.99849,469.91,-21.5863,-3.63217,52.1297,67.9201
1980-10-14 06:53:32,1,-2.16667,-9.4,8.14444,0.958136,1,1,142321.0,268599.0,1700,0.83150655,-4.2249651,201.87502,90.636734,6.63221,493.663,-5.38506,4.75836,48.4722,66.5902
1980-10-14 06:54:53,1,-1.2,-9.12222,8.81111,0.362774,1,1,147243.0,282606.0,1700,0.83150148,-4.2250347,201.86328,90.636719,7.23523,486.396,-11.4758,-1.97974,49.3031,68.3044
1980-10-14 06:56:14,1,-1.06667,-8.86667,9.52222,0.454063,1,1,133391.0,280542.0,1700,0.83149135,-4.225173,201.84764,90.636703,6.83259,483.095,-13.2547,-3.25949,46.9267,68.0545
1980-10-14 06:57:35,1,-0.166667,-9.02222,9.4,0.814832,1,1,128005.0,250078.0,1700,0.83148634,-4.2252426,201.83591,90.636688,6.45112,473.662,-11.887,-1.23196,45.9696,64.2533
1980-10-14 06:58:56,1,-1.18889,-7.56667,9.55556,0.458392,1,1,171818.0,290096.0,1700,0.83148128,-4.2253122,201.82419,90.636688,7.68487,478.23,-14.1362,-5.47269,53.2589,69.2037
1980-10-14 07:00:17,1,-0.944444,-6.54444,10.0333,0.941892,1,1,161416.0,282931.0,1700,0.8314712,-4.2254515,201.81245,90.636673,7.67255,483.367,-22.0598,-12.0543,51.6215,68.3437
1980-10-14 07:01:38,1,-0.644444,-6.77778,10.3222,0.415443,1,1,188094.0,263671.0,1700,0.83146614,-4.2255201,201.80072,90.636658,6.9395,478.199,-19.8093,-9.31225,55.7244,65.9764
1980-10-14 07:02:59,1,0.8,-7.525,9.85,0.330719,1,1,143276.0,265042.0,1700,0.83146107,-4.2255898,201.78899,90.636642,6.60316,478.44,-14.747,-7.15444,48.6345,66.1478
1980-10-14 07:04:20,1,1.62222,-6.34444,9.05556,1.34578,1,1,169586.0,332811.0,1700,0.83145094,-4.225729,201.77335,90.636627,7.59605,482.325,-30.8724,-20.4196,52.9118,74.1236
1980-10-14 07:05:41,1,4.15556,-6.14444,6.17778,0.761577,1,1,152432.0,267949.0,1700,0.83144593,-4.2257986,201.76163,90.636627,7.13814,461.457,-18.7135,9.45655,50.1645,66.5095
1980-10-14 07:07:02,1,3.85556,-8.07778,-1.73333,3.12619,1,1,180659.0,230503.0,1700,0.8314358,-4.2259378,201.74989,90.636612,5.73667,471.599,-20.8481,45.4496,54.6119,61.6874
1980-10-14 07:08:23,1,3.66667,-8.17778,-4.31111,0.386501,1,1,132090.0,218072.0,1700,0.83143073,-4.2260075,201.73816,90.636597,6.10801,473.111,-13.2679,56.1674,46.6974,60.0009
1980-10-14 07:09:44,1,3.68889,-7.52222,-4.63333,0.467195,1,1,118598.0,237981.0,1700,0.83142567,-4.2260771,201.72644,90.636597,6.33234,463.627,-12.0596,57.4546,44.2484,62.68
1980-10-14 07:11:05,1,3.0125,-6.575,-4.7,0.387903,1,1,165497.0,215392.0,1700,0.83141559,-4.2262154,201.71471,90.636581,6.15025,472.417,-17.0528,58.6228,52.2701,59.631
1980-10-14 07:12:26,-1,nan,nan,nan,nan,1,4,nan,nan,1700,0.83141053,-4.226285,201.69907,90.636566,nan,nan,nan,nan,nan,nan
1980-10-14 07:13:47,1,-4.53333,-1.2,9.63333,0.553775,1,1,148187.0,253248.0,1700,0.83140546,-4.2263546,201.68733,90.636551,5.83721,495.349,-35.448,-22.8838,49.461,64.6593
1980-10-14 07:15:08,1,-4.64444,-3.0,8.93333,0.547948,1,1,149188.0,276501.0,1700,0.83139539,-4.2264938,201.6756,90.636536,6.89849,508.689,-22.7028,-15.5756,49.6278,67.5625
1980-10-14 07:16:29,1,-4.23,-4.84,8.59,0.646065,1,1,160446.0,275699.0,1700,0.83139032,-4.2265635,201.66388,90.636536,6.75763,498.051,-12.4594,-15.2012,51.4663,67.4646
1980-10-14 07:17:50,1,-3.42222,-6.84444,7.04444,1.62207,1,1,136690.0,230660.0,1700,0.83138525,-4.2266331,201.65215,90.63652,5.97928,501.702,0.0395716,-10.3076,47.5036,61.7083
1980-10-14 07:19:11,1,2.03333,-4.22222,7.43333,0.907717,1,1,195062.0,237835.0,1700,0.83137512,-4.2267714,201.64041,90.636505,6.473,454.522,-18.1426,-4.7441,56.7472,62.6608
1980-10-14 07:20:32,1,-4.43333,-6.95556,5.04444,0.940712,1,1,439093.0,265228.0,1700,0.83137012,-4.226841,201.62479,90.636505,7.33191,493.981,-17.4538,9.88333,85.1404,66.171
1980-10-14 07:21:53,1,-3.74444,-6.57778,3.63333,0.694244,1,1,452435.0,311349.0,1700,0.83136505,-4.2269106,201.61305,90.63649,7.68721,492.007,-16.3389,16.5315,86.4243,71.6939
1980-10-14 07:23:14,1,0.766667,-6.84444,7.26667,0.719739,1,1,238882.0,302824.0,1700,0.83135492,-4.2270498,201.60132,90.636475,8.07928,477.934,-11.7828,10.4274,62.7986,70.7055
1980-10-14 07:24:35,1,0.475,-4.9125,9.9125,0.443354,1,1,221893.0,321224.0,1700,0.83134985,-4.2271194,201.58958,90.636459,7.59897,478.542,-22.9862,-5.89633,60.5243,72.8219
1980-10-14 07:25:56,1,-0.222222,-6.02222,8.18889,3.13936,1,1,150997.0,299498.0,1700,0.83134478,-4.2271891,201.57787,90.636459,6.70519,475.197,-16.7685,-12.0796,49.9278,70.3161
1980-10-14 07:27:17,1,1.08889,-9.44444,1.1,1.73689,1,1,135841.0,235321.0,1700,0.83133471,-4.2273273,201.56613,90.636444,5.87954,489.357,6.65488,31.7815,47.3558,62.3288
1980-10-14 07:28:38,1,-0.5,-10.3667,-0.533333,0.731817,1,1,298501.0,263050.0,1700,0.83132964,-4.227397,201.55049,90.636429,7.83694,489.413,-3.32062,36.4772,70.1989,65.8987
1980-10-14 07:29:59,1,0.777778,-8.36667,-3.71111,0.879674,1,1,171149.0,233581.0,1700,0.83132458,-4.2274666,201.53877,90.636429,6.47018,479.052,-3.78367,52.28,53.1552,62.0979
1980-10-14 07:31:20,1,0.244444,-6.22222,-5.17778,0.318562,1,1,268386.0,272423.0,1700,0.8313145,-4.2276058,201.52704,90.636414,7.61535,487.331,-21.2171,60.1966,66.5637,67.0625
1980-10-14 07:32:41,1,0.422222,-5.65556,-5.13333,0.526812,1,1,247605.0,270791.0,1700,0.83130944,-4.2276754,201.5153,90.636398,6.71512,483.516,-22.782,66.7896,63.9348,66.8613
1980-10-14 07:34:02,1,-1.26667,-7.74444,-3.63333,0.704132,1,1,275631.0,246014.0,1700,0.8312993,-4.2278147,201.50357,90.636383,7.41645,491.436,-6.68566,56.733,67.4562,63.7292
1980-10-14 07:35:23,1,-1.86667,-7.46667,-4.4,0.85894,1,1,192084.0,219853.0,1700,0.8312943,-4.2278833,201.49184,90.636368,6.74481,491.265,-13.735,53.7884,56.3123,60.2455
1980-10-14 07:36:44,1,-2.86667,-8.62222,-2.18889,0.981181,1,1,304418.0,248875.0,1700,0.83128923,-4.227953,201.47621,90.636368,6.97954,500.443,-11.4606,40.7289,70.8913,64.0986
1980-10-14 07:38:05,1,-3.125,-7.7625,-4.3375,0.379556,1,1,196982.0,228838.0,1700,0.8312791,-4.2280922,201.46448,90.636353,6.74498,502.61,-13.589,49.3298,57.0257,61.4641
1980-10-14 07:39:26,1,-1.23333,-8.77778,0.411111,0.435181,1,1,924148.0,233711.0,1700,0.83127403,-4.2281618,201.45274,90.636337,11.205,495.505,39.3171,33.6822,123.518,62.1151
1980-10-14 07:40:47,1,-2.71,-5.43,-1.01,0.935895,1,1,365667.0,342596.0,1700,0.83126897,-4.2282314,201.44102,90.636337,8.73805,495.386,-20.8793,37.6301,77.6964,75.2055
1980-10-14 07:42:08,-1,nan,nan,nan,nan,1,4,nan,nan,1700,0.83125889,-4.2283707,201.42928,90.636307,nan,nan,nan,nan,nan,nan